Change the Weather History Date:

Thursday, July 25, 2013

  Actual Average Record
Temperature  
Mean Temperature 44 °F -  
Max Temperature 50 °F - - ()
Min Temperature 39 °F - - ()
Degree Days  
Heating Degree Days 22    
Moisture  
Dew Point 42 °F    
Average Humidity 88    
Maximum Humidity 97    
Minimum Humidity 77    
Precipitation  
Precipitation 0.00 in - - ()
Sea Level Pressure  
Sea Level Pressure 30.15 in    
Wind  
Wind Speed 7 mph (WSW)    
Max Wind Speed 13 mph    
Max Gust Speed -    
Visibility 10 miles    
Events Rain    
T = Trace of Precipitation, MM = Missing Value Source: NWS Daily Summary

Daily Weather History Graph

Daily Weather History Graph

Search for Another Location

Airport or City:

Trip Planner

Search our weather history database for the weather conditions in past years. The results will help you decide how hot, cold, wet, or windy it might be!

Date:

Astronomy

Jul. 25, 2013 Rise Set
Actual Time 4:44 AM AKDT 1:20 AM AKDT
Civil Twilight Sun does not rise Sun does not rise
Nautical Twilight Sun does not rise Sun does not rise
Astronomical Twilight Sun does not rise Sun does not rise
Moon 12:02 AM AKDT (7/25) 11:19 AM AKDT (7/25)
Length of Visible Light 24h 00m
Length of Day
20h 36m
Waning Gibbous, 87% of the Moon is Illuminated
Jul 25
Waning Gibbous
Jul 29
Last Quarter
Aug 6
New
Aug 14
First Quarter
Aug 20
Full

Hourly Weather History & Observations

Time (AKDT) Temp. Windchill Dew Point Humidity Pressure Visibility Wind Dir Wind Speed Gust Speed Precip Events Conditions
12:53 AM 45.0 °F 38.9 °F 42.1 °F 90% 30.20 in 8.0 mi NW 12.7 mph - N/A   Clear
1:53 AM 44.1 °F 37.7 °F 42.1 °F 93% 30.20 in 8.0 mi NW 12.7 mph - N/A   Clear
2:53 AM 43.0 °F 36.8 °F 42.1 °F 97% 30.20 in 7.0 mi NW 11.5 mph - 0.00 in   Clear
3:53 AM 42.1 °F 37.7 °F 41.0 °F 96% 30.19 in 9.0 mi NNW 6.9 mph - N/A   Clear
4:53 AM 41.0 °F 38.0 °F 39.9 °F 96% 30.19 in 9.0 mi North 4.6 mph - N/A   Clear
5:53 AM 39.9 °F - 37.9 °F 93% 30.19 in 10.0 mi Calm Calm - N/A   Clear
6:53 AM 39.9 °F 37.8 °F 39.0 °F 97% 30.18 in 9.0 mi North 3.5 mph - N/A   Clear
7:53 AM 42.1 °F - 39.9 °F 92% 30.18 in 10.0 mi Calm Calm - 0.00 in   Clear
8:53 AM 44.1 °F - 39.9 °F 85% 30.17 in 10.0 mi Calm Calm - 0.00 in   Mostly Cloudy
9:53 AM 44.1 °F 42.5 °F 39.9 °F 85% 30.17 in 9.0 mi West 3.5 mph - N/A   Overcast
10:53 AM 44.1 °F 42.5 °F 41.0 °F 89% 30.17 in 10.0 mi West 3.5 mph - 0.00 in   Overcast
11:53 AM 45.0 °F 43.5 °F 43.0 °F 93% 30.16 in 10.0 mi WSW 3.5 mph - 0.00 in   Overcast
12:53 PM 46.9 °F - 43.0 °F 86% 30.15 in 10.0 mi Calm Calm - N/A   Overcast
1:53 PM 46.0 °F - 43.0 °F 89% 30.15 in 10.0 mi Calm Calm - N/A   Overcast
2:53 PM 48.9 °F - 44.1 °F 83% 30.14 in 10.0 mi South 3.5 mph - N/A   Overcast
3:53 PM 48.9 °F - 44.1 °F 83% 30.14 in 10.0 mi SSW 6.9 mph - 0.00 in   Overcast
4:53 PM 48.9 °F - 42.1 °F 77% 30.12 in 10.0 mi South 8.1 mph - 0.00 in Rain Light Rain
5:53 PM 48.9 °F - 42.1 °F 77% 30.12 in 10.0 mi South 10.4 mph - 0.00 in   Overcast
6:00 PM 48.2 °F - 42.8 °F 82% 30.12 in 10.0 mi South 10.4 mph - N/A   Overcast
6:33 PM 48.2 °F - 42.8 °F 82% 30.12 in 9.0 mi South 9.2 mph - 0.00 in   Overcast
6:53 PM 48.9 °F - 44.1 °F 83% 30.12 in 10.0 mi SSW 9.2 mph - 0.00 in   Overcast
7:40 PM 48.2 °F - 46.4 °F 93% 30.11 in 9.0 mi SW 9.2 mph - N/A   Mostly Cloudy
7:53 PM 48.0 °F - 46.9 °F 96% 30.10 in 9.0 mi SW 9.2 mph - N/A   Mostly Cloudy
8:53 PM 46.9 °F - 44.1 °F 90% 30.11 in 10.0 mi West 9.2 mph - N/A   Overcast
9:53 PM 46.0 °F 42.5 °F 42.1 °F 86% 30.11 in 9.0 mi SW 6.9 mph - N/A   Mostly Cloudy
10:53 PM 46.0 °F 42.5 °F 41.0 °F 83% 30.11 in 10.0 mi WSW 6.9 mph - N/A   Overcast
11:48 PM 46.4 °F 44.3 °F 42.8 °F 87% 30.11 in 10.0 mi SW 4.6 mph - N/A   Mostly Cloudy
11:53 PM 46.0 °F 43.1 °F 43.0 °F 89% 30.11 in 10.0 mi SW 5.8 mph - N/A   Scattered Clouds